Regional Weather Roundup
Issued by NWS

Home | Current Version | Previous Version | Text Only | Print | Product List | Glossary Off
Versions: 1 2 3 4 5 6 7 8 9 10 11 12 13 14 15 16 17 18 19 20 21 22 23 24 25 26 27 28 29 30 31 32 33 34 35 36 37 38 39 40 41 42 43 44 45 46 47 48 49 50

000
ASUS43 KIND 280659
RWRIN

WEATHER ROUNDUP FOR INDIANA
NATIONAL WEATHER SERVICE INDIANAPOLIS IN
300 AM EDT TUE APR 28 2015

NOTE: "FAIR" INDICATES FEW OR NO CLOUDS BELOW 12,000 FEET WITH NO
SIGNIFICANT WEATHER AND/OR OBSTRUCTIONS TO VISIBILITY.

* - STATION DOES NOT REPORT WEATHER SUCH AS PRECIPITATION OR FOG.

+ - STATION NOT QUALITY CONTROLLED BY THE NATIONAL WEATHER SERVICE.
    USE DATA WITH CAUTION...ESPECIALLY DEWPOINT AND RELATIVE
    HUMIDITY OBSERVATIONS.

INZ001>003-010>013-019-020-280800-
NORTHWEST INDIANA

CITY           SKY/WX    TMP DP  RH WIND       PRES   REMARKS

$$

LMZ046-743>745-280800-
SOUTHERN LAKE MICHIGAN

STATION/POSITION TIME  TEMP    WIND        PRES    WAVE
                       AIR SEA DIR/SP/G            HT
                 (UTC) (F)     (DEG/KT/KT) (MB)    (FT)
BURNS HARBOR     0600   42     360/  4/  5 1020.3S
MICHIGAN CITY    0600   41      10/  2/  3   N/A
5NW MICH CITY    0600   40 46  350/  4/  6   N/A     2

$$

INZ004-005-014>016-021>024-280800-
NORTH CENTRAL INDIANA

CITY           SKY/WX    TMP DP  RH WIND       PRES   REMARKS
GOSHEN         CLEAR     35  32  88 CALM      30.09F
SOUTH BEND     CLEAR     35  31  85 NW6       30.11S WCI  30

$$

INZ006>009-017-018-025>027-280800-
NORTHEAST INDIANA

CITY           SKY/WX    TMP DP  RH WIND       PRES   REMARKS
ANGOLA *+      CLEAR     32  30  93 CALM      30.08F
FORT WAYNE     CLEAR     34  31  88 CALM      30.10S

$$

INZ028-029-035-036-043>045-051>053-280800-
WEST CENTRAL INDIANA

CITY           SKY/WX    TMP DP  RH WIND       PRES   REMARKS
GREENCASTLE +  CLEAR     39  32  75 NE5       30.09S
LAFAYETTE      CLEAR     37  34  89 W3        30.10R
TERRE HAUTE    CLEAR     41  35  79 N6        30.09S

$$

INZ030>032-037>040-046>048-054>057-064-065-280800-
CENTRAL INDIANA

CITY           SKY/WX    TMP DP  RH WIND       PRES   REMARKS
FRANKFORT +    CLEAR     38  38 100 NE5       30.11R
GREENWOOD *+   CLEAR     43  34  70 NE3       30.09R
INDIANAPOLIS   CLEAR     44  35  70 E8        30.07S
-EAGLE CREEK   CLEAR     40  36  86 E3        30.08S
KOKOMO *+      CLEAR     37  30  75 CALM      30.09S
MT COMFORT *+  CLEAR     37  37 100 CALM      30.09S
SHELBYVILLE    CLEAR     42  35  76 NE5       30.08R

$$

INZ033-034-041-042-049-050-058-059-280800-
EAST CENTRAL INDIANA

CITY           SKY/WX    TMP DP  RH WIND       PRES   REMARKS
MUNCIE         CLEAR     38  34  85 CALM      30.09S

$$

INZ060-061-067>069-081>083-085>088-280800-
SOUTHWEST INDIANA

CITY           SKY/WX    TMP DP  RH WIND       PRES   REMARKS
EVANSVILLE     CLEAR     48  38  68 N7        30.07S
HUNTINGBURG *+ CLEAR     43  34  70 N5        30.07S

$$

INZ062-063-066-070>080-084-089>092-280800-
SOUTH CENTRAL AND SOUTHEAST INDIANA

CITY           SKY/WX    TMP DP  RH WIND       PRES   REMARKS
BLOOMINGTON    CLEAR     42  36  79 NE5       30.07S
MADISON *+     CLEAR     45  34  65 NE6       30.08S
SEYMOUR +      CLEAR     43  37  81 NE6       30.07S

$$



USA.gov is the U.S. government's official web portal to all federal, state and local government web resources and services.